DAL7245 SAVC-SAVE

Flight info

Callsign DAL7245
Flight time 0h 48m
Altitude 26000
Route EGEGU2G EGEGU DCT IROLA DCT ASUTO DCT TEPUB DCT GIMBI
Aircraft B722/M-SDFHIR/C

Departure

Time 2026-04-15 15:51
Airport General Enrique Mosconi International Airport (SAVC)

Arrival

Time 2026-04-15 16:40
Airport Esquel Brigadier Antonio Parodi International Airport (SAVE)
Time Latitude Longitude Altitude Speed Heading
2026-04-15 15:32 -45.78952 -67.46890 141 ft 0 kts 235°
2026-04-15 15:46 -45.78953 -67.46892 141 ft 1 kts 235°
2026-04-15 15:46 -45.78956 -67.46904 141 ft 3 kts 254°
2026-04-15 15:46 -45.78948 -67.46938 142 ft 3 kts 332°
2026-04-15 15:46 -45.78922 -67.46906 141 ft 10 kts 66°
2026-04-15 15:47 -45.78878 -67.46797 136 ft 16 kts 13°
2026-04-15 15:47 -45.78777 -67.46798 135 ft 14 kts 26°
2026-04-15 15:47 -45.78737 -67.46649 123 ft 19 kts 81°
2026-04-15 15:47 -45.78710 -67.46468 136 ft 18 kts 78°
2026-04-15 15:48 -45.78687 -67.46244 127 ft 25 kts 82°
2026-04-15 15:48 -45.78649 -67.45980 120 ft 29 kts 78°
2026-04-15 15:48 -45.78615 -67.45719 119 ft 27 kts 77°
2026-04-15 15:48 -45.78576 -67.45440 114 ft 30 kts 79°
2026-04-15 15:49 -45.78541 -67.45171 113 ft 21 kts 79°
2026-04-15 15:49 -45.78514 -67.44961 110 ft 21 kts 79°
2026-04-15 15:49 -45.78439 -67.44837 109 ft 18 kts 17°
2026-04-15 15:49 -45.78334 -67.44837 107 ft 12 kts 339°
2026-04-15 15:50 -45.78308 -67.44923 110 ft 9 kts 261°
2026-04-15 15:50 -45.78309 -67.44928 110 ft 0 kts 260°
2026-04-15 15:50 -45.78317 -67.44993 112 ft 29 kts 258°
2026-04-15 15:50 -45.78397 -67.45600 120 ft 91 kts 259°
2026-04-15 15:51 -45.78545 -67.46712 132 ft 134 kts 259°
2026-04-15 15:51 -45.78717 -67.48124 358 ft 146 kts 261°
2026-04-15 15:51 -45.78885 -67.49552 842 ft 144 kts 260°
2026-04-15 15:51 -45.79078 -67.50984 1276 ft 149 kts 259°
2026-04-15 15:52 -45.79276 -67.52469 1710 ft 154 kts 260°
2026-04-15 15:52 -45.79470 -67.53985 2197 ft 160 kts 261°
2026-04-15 15:52 -45.79680 -67.55649 2602 ft 181 kts 263°
2026-04-15 15:52 -45.79910 -67.57535 3061 ft 203 kts 265°
2026-04-15 15:53 -45.80149 -67.59577 3773 ft 212 kts 265°
2026-04-15 15:53 -45.80385 -67.61665 4683 ft 210 kts 265°
2026-04-15 15:53 -45.80627 -67.63747 5546 ft 213 kts 265°
2026-04-15 15:53 -45.80871 -67.65854 6417 ft 215 kts 265°
2026-04-15 15:54 -45.81110 -67.67974 7240 ft 218 kts 265°
2026-04-15 15:54 -45.81350 -67.70144 8004 ft 222 kts 265°
2026-04-15 15:54 -45.81590 -67.72332 8811 ft 222 kts 265°
2026-04-15 15:54 -45.81826 -67.74540 9565 ft 226 kts 265°
2026-04-15 15:55 -45.82060 -67.76781 10295 ft 230 kts 264°
2026-04-15 15:55 -45.82289 -67.79026 11028 ft 232 kts 264°
2026-04-15 15:55 -45.82524 -67.81331 11704 ft 235 kts 265°
2026-04-15 15:55 -45.82348 -67.83633 12282 ft 237 kts 295°
2026-04-15 15:56 -45.81218 -67.85354 12733 ft 250 kts 332°
2026-04-15 15:56 -45.79463 -67.85753 13200 ft 270 kts
2026-04-15 15:56 -45.77723 -67.84566 13655 ft 291 kts 39°
2026-04-15 15:56 -45.76501 -67.82147 14128 ft 307 kts 55°
2026-04-15 15:57 -45.75273 -67.79574 14557 ft 320 kts 51°
2026-04-15 15:57 -45.73934 -67.76905 14922 ft 340 kts 51°
2026-04-15 15:57 -45.72412 -67.74279 15229 ft 355 kts 37°
2026-04-15 15:57 -45.70201 -67.72636 15539 ft 365 kts 11°
2026-04-15 15:58 -45.67654 -67.72524 15867 ft 373 kts 346°
2026-04-15 15:58 -45.65218 -67.73904 16207 ft 384 kts 327°
2026-04-15 15:58 -45.62928 -67.75973 16548 ft 398 kts 326°
2026-04-15 15:58 -45.60520 -67.78099 16863 ft 409 kts 327°
2026-04-15 15:59 -45.58019 -67.80158 17167 ft 419 kts 329°
2026-04-15 15:59 -45.55445 -67.82152 17595 ft 419 kts 330°
2026-04-15 15:59 -45.52874 -67.84067 17900 ft 424 kts 330°
2026-04-15 15:59 -45.50225 -67.85977 18218 ft 428 kts 331°
2026-04-15 16:00 -45.47548 -67.87858 18616 ft 430 kts 332°
2026-04-15 16:00 -45.44832 -67.89688 18962 ft 433 kts 333°
2026-04-15 16:00 -45.42112 -67.91513 19329 ft 434 kts 332°
2026-04-15 16:00 -45.39357 -67.93356 19666 ft 437 kts 333°
2026-04-15 16:01 -45.36580 -67.95158 20000 ft 439 kts 333°
2026-04-15 16:01 -45.33698 -67.96650 20264 ft 444 kts 341°
2026-04-15 16:01 -45.30713 -67.97693 20576 ft 447 kts 345°
2026-04-15 16:01 -45.27659 -67.98608 20865 ft 450 kts 345°
2026-04-15 16:02 -45.24586 -67.99523 21163 ft 451 kts 345°
2026-04-15 16:02 -45.21501 -68.00403 21449 ft 454 kts 346°
2026-04-15 16:02 -45.18400 -68.01252 21794 ft 454 kts 346°
2026-04-15 16:02 -45.15289 -68.02098 22009 ft 456 kts 346°
2026-04-15 16:03 -45.12151 -68.02949 22273 ft 458 kts 346°
2026-04-15 16:03 -45.09020 -68.03830 22529 ft 460 kts 346°
2026-04-15 16:03 -45.05872 -68.04714 22770 ft 461 kts 346°
2026-04-15 16:03 -45.02736 -68.05691 22964 ft 461 kts 342°
2026-04-15 16:04 -44.99718 -68.07218 23162 ft 461 kts 334°
2026-04-15 16:04 -44.96852 -68.09249 23392 ft 460 kts 328°
2026-04-15 16:04 -44.94085 -68.11514 23585 ft 461 kts 326°
2026-04-15 16:04 -44.91397 -68.13884 23789 ft 462 kts 326°
2026-04-15 16:05 -44.88665 -68.16298 23974 ft 464 kts 326°
2026-04-15 16:05 -44.85911 -68.18685 24183 ft 465 kts 326°
2026-04-15 16:05 -44.83154 -68.21091 24353 ft 467 kts 326°
2026-04-15 16:05 -44.80388 -68.23501 24555 ft 468 kts 326°
2026-04-15 16:06 -44.77614 -68.25909 24744 ft 469 kts 326°
2026-04-15 16:06 -44.74826 -68.28323 24953 ft 470 kts 326°
2026-04-15 16:06 -44.72030 -68.30741 25093 ft 472 kts 326°
2026-04-15 16:06 -44.69232 -68.33156 25272 ft 473 kts 326°
2026-04-15 16:07 -44.66419 -68.35581 25470 ft 473 kts 326°
2026-04-15 16:07 -44.63645 -68.37971 25638 ft 475 kts 326°
2026-04-15 16:07 -44.57995 -68.42828 25966 ft 477 kts 326°
2026-04-15 16:08 -44.55161 -68.45256 26047 ft 479 kts 326°
2026-04-15 16:08 -44.52307 -68.47714 26043 ft 482 kts 325°
2026-04-15 16:08 -44.49459 -68.50229 26045 ft 486 kts 326°
2026-04-15 16:08 -44.46560 -68.52713 26053 ft 489 kts 326°
2026-04-15 16:09 -44.43650 -68.55204 26059 ft 492 kts 326°
2026-04-15 16:09 -44.40724 -68.57705 26065 ft 494 kts 326°
2026-04-15 16:09 -44.37781 -68.60219 26059 ft 497 kts 326°
2026-04-15 16:09 -44.34821 -68.62744 26059 ft 498 kts 326°
2026-04-15 16:10 -44.31861 -68.65264 26059 ft 498 kts 326°
2026-04-15 16:10 -44.28902 -68.67776 26053 ft 498 kts 326°
2026-04-15 16:10 -44.25939 -68.70283 26056 ft 498 kts 326°
2026-04-15 16:10 -44.23011 -68.72751 26053 ft 498 kts 327°
2026-04-15 16:11 -44.20044 -68.75244 26059 ft 498 kts 327°
2026-04-15 16:11 -44.17070 -68.77734 26057 ft 498 kts 327°
2026-04-15 16:11 -44.14097 -68.80215 26064 ft 498 kts 327°
2026-04-15 16:11 -44.11135 -68.82718 26059 ft 498 kts 326°
2026-04-15 16:12 -44.08170 -68.85228 26063 ft 498 kts 326°
2026-04-15 16:12 -44.05205 -68.87730 26059 ft 498 kts 327°
2026-04-15 16:12 -44.02240 -68.90225 26062 ft 498 kts 327°
2026-04-15 16:12 -43.99278 -68.92714 26061 ft 498 kts 327°
2026-04-15 16:13 -43.96314 -68.95200 26063 ft 497 kts 327°
2026-04-15 16:13 -43.93393 -68.97640 26058 ft 496 kts 327°
2026-04-15 16:13 -43.90437 -69.00108 26060 ft 495 kts 327°
2026-04-15 16:13 -43.87490 -69.02572 26059 ft 494 kts 327°
2026-04-15 16:14 -43.84550 -69.05033 26057 ft 493 kts 327°
2026-04-15 16:14 -43.81616 -69.07492 26055 ft 492 kts 327°
2026-04-15 16:14 -43.78686 -69.09943 26055 ft 492 kts 327°
2026-04-15 16:14 -43.75753 -69.12389 26053 ft 492 kts 327°
2026-04-15 16:15 -43.72827 -69.14833 26044 ft 491 kts 327°
2026-04-15 16:15 -43.69900 -69.17278 26048 ft 491 kts 327°
2026-04-15 16:15 -43.66979 -69.19715 26057 ft 491 kts 327°
2026-04-15 16:15 -43.64058 -69.22149 26069 ft 490 kts 327°
2026-04-15 16:16 -43.61139 -69.24577 26068 ft 490 kts 327°
2026-04-15 16:16 -43.58216 -69.27001 26070 ft 490 kts 327°
2026-04-15 16:16 -43.55294 -69.29418 26068 ft 489 kts 327°
2026-04-15 16:16 -43.52376 -69.31832 26069 ft 489 kts 327°
2026-04-15 16:17 -43.49455 -69.34252 26067 ft 489 kts 327°
2026-04-15 16:17 -43.46531 -69.36669 26068 ft 489 kts 327°
2026-04-15 16:17 -43.43613 -69.39078 26067 ft 489 kts 327°
2026-04-15 16:17 -43.40734 -69.41454 26051 ft 488 kts 327°
2026-04-15 16:18 -43.37910 -69.43783 26031 ft 456 kts 327°
2026-04-15 16:18 -43.35267 -69.45953 25782 ft 430 kts 327°
2026-04-15 16:18 -43.32754 -69.48015 25329 ft 412 kts 327°
2026-04-15 16:18 -43.30338 -69.49994 24820 ft 398 kts 327°
2026-04-15 16:19 -43.27999 -69.51913 24317 ft 386 kts 327°
2026-04-15 16:19 -43.25728 -69.53774 23819 ft 375 kts 327°
2026-04-15 16:19 -43.23510 -69.55590 23324 ft 366 kts 327°
2026-04-15 16:19 -43.21352 -69.57365 22828 ft 358 kts 327°
2026-04-15 16:20 -43.19235 -69.59099 22340 ft 351 kts 327°
2026-04-15 16:20 -43.17158 -69.60801 21817 ft 345 kts 327°
2026-04-15 16:20 -43.15112 -69.62480 21285 ft 341 kts 327°
2026-04-15 16:20 -43.13090 -69.64140 20751 ft 336 kts 327°
2026-04-15 16:21 -43.11758 -69.65218 20399 ft 334 kts 328°
2026-04-15 16:21 -43.09777 -69.66842 19865 ft 329 kts 327°
2026-04-15 16:21 -43.07181 -69.68917 19168 ft 324 kts 328°
2026-04-15 16:21 -43.05269 -69.70526 18640 ft 321 kts 328°
2026-04-15 16:22 -43.03345 -69.72051 18113 ft 318 kts 328°
2026-04-15 16:22 -43.02101 -69.73171 17756 ft 315 kts 326°
2026-04-15 16:22 -43.00226 -69.74702 17221 ft 312 kts 324°
2026-04-15 16:22 -42.98836 -69.76869 16687 ft 310 kts 296°
2026-04-15 16:23 -42.98286 -69.79686 16228 ft 306 kts 277°
2026-04-15 16:23 -42.98292 -69.82571 15787 ft 302 kts 269°
2026-04-15 16:23 -42.98306 -69.85430 15329 ft 299 kts 271°
2026-04-15 16:23 -42.98290 -69.88262 14854 ft 298 kts 272°
2026-04-15 16:24 -42.98261 -69.91084 14378 ft 296 kts 271°
2026-04-15 16:24 -42.98238 -69.93884 13915 ft 293 kts 275°
2026-04-15 16:24 -42.98122 -69.96650 13450 ft 291 kts 276°
2026-04-15 16:24 -42.97926 -69.99410 12961 ft 292 kts 277°
2026-04-15 16:25 -42.97716 -70.02166 12486 ft 292 kts 278°
2026-04-15 16:25 -42.97514 -70.04920 12039 ft 290 kts 278°
2026-04-15 16:25 -42.97323 -70.07654 11612 ft 288 kts 278°
2026-04-15 16:25 -42.97134 -70.10373 11195 ft 287 kts 278°
2026-04-15 16:26 -42.96948 -70.13035 10807 ft 283 kts 278°
2026-04-15 16:26 -42.96764 -70.15696 10402 ft 281 kts 278°
2026-04-15 16:26 -42.96582 -70.18337 10000 ft 278 kts 278°
2026-04-15 16:26 -42.96400 -70.20954 9611 ft 275 kts 278°
2026-04-15 16:27 -42.96220 -70.23546 9271 ft 272 kts 278°
2026-04-15 16:27 -42.96044 -70.26108 8919 ft 269 kts 278°
2026-04-15 16:27 -42.95871 -70.28646 8553 ft 267 kts 278°
2026-04-15 16:27 -42.95701 -70.31158 8207 ft 264 kts 278°
2026-04-15 16:28 -42.95526 -70.33636 7859 ft 262 kts 278°
2026-04-15 16:28 -42.95349 -70.36123 7506 ft 261 kts 278°
2026-04-15 16:28 -42.95175 -70.38578 7179 ft 258 kts 278°
2026-04-15 16:28 -42.95004 -70.41006 6879 ft 254 kts 279°
2026-04-15 16:29 -42.94571 -70.43269 6561 ft 247 kts 294°
2026-04-15 16:29 -42.93932 -70.45424 6301 ft 242 kts 295°
2026-04-15 16:29 -42.93271 -70.47480 6216 ft 232 kts 298°
2026-04-15 16:29 -42.92583 -70.49425 6195 ft 224 kts 298°
2026-04-15 16:30 -42.91923 -70.51324 6173 ft 221 kts 297°
2026-04-15 16:30 -42.91261 -70.53251 6162 ft 228 kts 297°
2026-04-15 16:30 -42.90575 -70.55235 6182 ft 234 kts 297°
2026-04-15 16:30 -42.89871 -70.57262 6202 ft 238 kts 297°
2026-04-15 16:31 -42.89157 -70.59318 6219 ft 242 kts 297°
2026-04-15 16:31 -42.88434 -70.61395 6243 ft 241 kts 297°
2026-04-15 16:31 -42.87750 -70.63446 6242 ft 234 kts 297°
2026-04-15 16:31 -42.87082 -70.65433 6211 ft 227 kts 297°
2026-04-15 16:32 -42.86429 -70.67354 6184 ft 220 kts 297°
2026-04-15 16:32 -42.85783 -70.69206 6156 ft 212 kts 297°
2026-04-15 16:32 -42.85167 -70.71004 6125 ft 207 kts 297°
2026-04-15 16:32 -42.84553 -70.72746 6086 ft 201 kts 298°
2026-04-15 16:33 -42.83991 -70.74437 6053 ft 196 kts 296°
2026-04-15 16:33 -42.83420 -70.76095 6016 ft 191 kts 298°
2026-04-15 16:33 -42.82846 -70.77707 5991 ft 189 kts 298°
2026-04-15 16:33 -42.82288 -70.79323 6005 ft 187 kts 297°
2026-04-15 16:34 -42.81742 -70.80913 6011 ft 184 kts 298°
2026-04-15 16:34 -42.81199 -70.82470 5997 ft 182 kts 297°
2026-04-15 16:34 -42.80647 -70.84069 6009 ft 192 kts 297°
2026-04-15 16:34 -42.80066 -70.85761 6056 ft 202 kts 297°
2026-04-15 16:35 -42.79597 -70.87599 6066 ft 214 kts 274°
2026-04-15 16:35 -42.79956 -70.89567 6122 ft 214 kts 249°
2026-04-15 16:35 -42.80477 -70.91415 6040 ft 206 kts 258°
2026-04-15 16:35 -42.80833 -70.93247 5786 ft 193 kts 255°
2026-04-15 16:36 -42.81394 -70.94785 5540 ft 170 kts 239°
2026-04-15 16:36 -42.82040 -70.96024 5304 ft 154 kts 239°
2026-04-15 16:36 -42.82613 -70.97212 5125 ft 153 kts 241°
2026-04-15 16:36 -42.83194 -70.98455 4937 ft 157 kts 239°
2026-04-15 16:37 -42.83795 -70.99686 4720 ft 153 kts 240°
2026-04-15 16:37 -42.84332 -71.00891 4538 ft 146 kts 243°
2026-04-15 16:37 -42.84861 -71.02084 4340 ft 147 kts 237°
2026-04-15 16:37 -42.85425 -71.03226 4185 ft 144 kts 234°
2026-04-15 16:38 -42.85984 -71.04364 3947 ft 147 kts 236°
2026-04-15 16:38 -42.86554 -71.05570 3712 ft 151 kts 236°
2026-04-15 16:38 -42.87107 -71.06751 3501 ft 146 kts 237°
2026-04-15 16:38 -42.87671 -71.07897 3302 ft 145 kts 234°
2026-04-15 16:39 -42.88235 -71.09042 3149 ft 145 kts 236°
2026-04-15 16:39 -42.88786 -71.10198 2992 ft 145 kts 236°
2026-04-15 16:39 -42.89336 -71.11351 2818 ft 143 kts 236°
2026-04-15 16:39 -42.89870 -71.12487 2594 ft 139 kts 237°
2026-04-15 16:40 -42.90284 -71.13346 2603 ft 70 kts 237°
2026-04-15 16:40 -42.90457 -71.13710 2607 ft 30 kts 236°
2026-04-15 16:40 -42.90574 -71.13956 2609 ft 32 kts 237°
2026-04-15 16:40 -42.90683 -71.14191 2612 ft 23 kts 236°
2026-04-15 16:41 -42.90741 -71.14384 2614 ft 21 kts 267°
2026-04-15 16:41 -42.90742 -71.14534 2615 ft 14 kts 288°
2026-04-15 16:41 -42.90689 -71.14597 2615 ft 8 kts 348°
2026-04-15 16:41 -42.90658 -71.14600 2614 ft 0 kts